Regional Weather Roundup
Issued by NWS

Home | Current Version | Previous Version | Graphics & Text | Print | Product List | Glossary On
Versions: 1 2 3 4 5 6 7 8 9 10 11 12 13 14 15 16 17 18 19 20 21 22 23 24 25 26 27 28 29 30 31 32 33 34 35 36 37 38 39 40 41 42 43 44 45 46 47 48 49 50
000
ASUS43 KMPX 252201
RWRMN
WEATHER ROUNDUP FOR MINNESOTA
NATIONAL WEATHER SERVICE TWIN CITIES/CHANHASSEN MN
500 PM CDT THU MAY 25 2017


NOTE: "FAIR" INDICATES FEW OR NO CLOUDS BELOW 12,000 FEET WITH NO
SIGNIFICANT WEATHER AND/OR OBSTRUCTIONS TO VISIBILITY. N/A MEANS
CURRENT SKY AND/OR WEATHER CONDITIONS ARE NOT AVAILABLE.

MNZ060>063-068>070-252300-
   Twin Cities Metro

CITY           SKY/WX    TMP DP  RH WIND       PRES   REMARKS
TWIN CITIES    MOSUNNY   70  50  49 SE12G18   29.63F
ST PAUL        MOSUNNY   69  52  54 SE9       29.64F
CRYSTAL        CLOUDY    69  48  47 S12       29.62F
BLAINE         MOSUNNY   72  52  49 S12       29.64S
LAKEVILLE      MOSUNNY   70  52  52 S12G18    29.63S
EDEN PRAIRIE   MOSUNNY   71  50  47 S12       29.61F
SOUTH ST PAUL  CLOUDY    69  51  53 E5        29.63F
LAKE ELMO      FAIR      68  54  60 SE7       29.66S
$$
MNZ001>005-007-008-013>017-022>024-027-028-252300-
   Northwest Minnesota

CITY           SKY/WX    TMP DP  RH WIND       PRES   REMARKS
BEMIDJI        CLOUDY    65  47  52 SE14      29.59S
HALLOCK        CLOUDY    66  45  45 S22G32    29.50R
ROSEAU         MOSUNNY   66  48  52 S18       29.55S
WARROAD        PTSUNNY   66  48  52 S15G22    29.57S
CROOKSTON      CLOUDY    66  46  48 S15       29.52S
FOSSTON        CLOUDY    63  45  51 SE14G22   29.56S
DETROIT LAKES  CLOUDY    63  46  55 SE16      29.57R
MOORHEAD       CLOUDY    66  48  52 SE22G31   29.52R
PARK RAPIDS    LGT RAIN  66  43  43 S16G23    29.59S
MAHNOMEN       CLOUDY    64  46  52 SE15G22   29.55S
$$
MNZ006-009>011-018-025>026-252300-
   North Central Minnesota

CITY           SKY/WX    TMP DP  RH WIND       PRES   REMARKS
BAUDETTE       CLOUDY    67  46  47 SE13      29.59R
FLAG ISLAND    CLOUDY    61  48  63 SE9       29.56F
INTL FALLS     MOSUNNY   68  44  42 SE13G18   29.62S
WASKISH        CLOUDY    66  48  52 SE12G20   29.60S
BIG FORK       PTSUNNY   64  46  52 S8G17     29.63S
LONGVILLE      CLOUDY    64  48  55 S9G20     29.63R
GRAND RAPIDS   LGT RAIN  65  47  52 S12       29.65S
CRANE LAKE     MOSUNNY   66  43  42 S6        29.66S
ORR            CLOUDY    68  43  40 S9        29.63R
COOK           CLOUDY    66  46  48 SE10      29.66S
WALKER         CLOUDY    63  46  54 SE9G16    29.61R
$$
MNZ012-019>021-037-252300-
   Northeast Minnesota

CITY           SKY/WX    TMP DP  RH WIND       PRES   REMARKS
DULUTH         MOSUNNY   64  47  53 E15       29.67S
ELY            MOSUNNY   64  43  45 SE10G17   29.68S
HIBBING        PTSUNNY   66  44  45 S13G26    29.65S
EVELETH        MOSUNNY   65  37  35 S16       29.67S
DULUTH HARBOR  SUNNY     50  43  76 NE8       29.70S
TWO HARBORS    SUNNY     64  48  55 E18       29.68S
SILVER BAY     SUNNY     61  46  59 E14       29.69F
GRAND MARAIS     N/A     55  44  66 E8        29.72F
G MARAIS ARPRT SUNNY     63  39  42 SE8G16    29.74S
$$
MNZ029>031-032-039>041-046>048-054>057-064-252300-
   West Central Minnesota

CITY           SKY/WX    TMP DP  RH WIND       PRES   REMARKS
FERGUS FALLS   CLOUDY    66  48  52 S23       29.53R
WHEATON        CLOUDY    66  52  59 SE17G23   29.53R
MORRIS         CLOUDY    66  52  59 SE17G23   29.54S
ALEXANDRIA     CLOUDY    65  48  54 SE16G23   29.59S
ELBOW LAKE     DRIZZLE   62  52  69 E14G22    29.55R
WADENA         CLOUDY    64  48  55 SE16      29.59S
GLENWOOD       MOSUNNY   64  48  55 SE17      29.59F
APPLETON       CLOUDY    70  52  52 SE13      29.54S
BENSON         CLOUDY    68  50  52 S14G21    29.57F
ORTONVILLE     CLOUDY    70  52  52 S15       29.52F
MADISON        LGT RAIN  68  57  68 S5        29.55R
WILLMAR        FAIR      70  52  52 S15G21    29.60S
$$
MNZ033>034-036-042>043-049>051-058-059-252300-
   Central Minnesota

CITY           SKY/WX    TMP DP  RH WIND       PRES   REMARKS
ST CLOUD       MOSUNNY   67  50  54 S8G18     29.62F
SAUK CENTRE    CLOUDY    64  49  56 SE14      29.61S
PAYNESVILLE    CLOUDY    66  47  50 SE12      29.62R
AITKIN         CLOUDY    64  48  55 S12       29.62F
PINE RIVER     PTSUNNY   64  48  55 S12       29.66R
BRAINERD       CLOUDY    66  48  52 SE10      29.62F
STAPLES        CLOUDY    64  45  48 SE10G20   29.61S
LONG PRAIRIE   CLOUDY    63  46  55 E15       29.62R
LITTLE FALLS   PTSUNNY   68  45  42 S12       29.62S
LITCHFIELD     MOSUNNY   68  52  56 SE9G16    29.62S
BUFFALO        MOSUNNY   67  48  50 SE7       29.64S
MAPLE LAKE     MOSUNNY   70  53  54 S6        29.64S
HUTCHINSON     CLOUDY    70  53  53 SE12G21   29.63R
$$
MNZ037-044-045-052-053-252300-
   East Central Minnesota

CITY           SKY/WX    TMP DP  RH WIND       PRES   REMARKS
PRINCETON      MOSUNNY   70  48  46 SE13      29.63F
MORA           CLOUDY    64  46  52 S9        29.66S
CAMBRIDGE      CLOUDY    70  52  52 SE9G16    29.62F
RUSH CITY      CLOUDY    69  50  50 SE9G16    29.65S
MOOSE LAKE     CLOUDY    63  46  55 NE7       29.64S
HINCKLEY       FAIR      68  50  52 SE7       29.64F
CLOQUET        SUNNY     61  43  51 E10       29.68R
MCGREGOR       MOSUNNY   68  46  45 SE13G18   29.64F
$$
MNZ071>073-080-081-089-090-097-098-252300-
   Southwest Minnesota

CITY           SKY/WX    TMP DP  RH WIND       PRES   REMARKS
MONTEVIDEO     RAIN      66  52  59 S10G17    29.56S
CANBY          CLOUDY    69  53  58 CALM      29.56S
MARSHALL       CLOUDY    70  51  51 S14       29.56R
REDWOOD FALLS  CLOUDY    70  48  45 S20       29.58R
OLIVIA         PTSUNNY   70  50  49 S15       29.59R
PIPESTONE      CLOUDY    66  46  48 SW9       29.58R
WINDOM         CLOUDY    70  48  46 SE17G24   29.58S
WORTHINGTON    PTSUNNY   70  49  47 S12       29.58R
JACKSON        MOSUNNY   70  48  46 SE16      29.60S
TRACY          CLOUDY    71  52  51 S8        29.57S
SLAYTON        CLOUDY    69  48  47 S13G22    29.58R
$$
MNZ065>067-074>077-082>085-091>093-252300-
   South Central Minnesota

CITY           SKY/WX    TMP DP  RH WIND       PRES   REMARKS
MANKATO        MOSUNNY   70  51  51 SE17      29.61F
NEW ULM        MOSUNNY   68  48  49 SE12      29.61R
ST JAMES       CLOUDY    70  48  46 S15       29.61R
FAIRMONT       PTSUNNY   70  50  49 S15       29.61R
GLENCOE        MOSUNNY   71  53  53 SE13G18   29.62S
FARIBAULT      CLOUDY    70  52  52 SE12G17   29.64F
OWATONNA       SUNNY     70  48  46 S12       29.64S
WASECA         SUNNY     70  50  49 S10       29.65S
ALBERT LEA     SUNNY     72  50  46 SE9       29.63F
$$
MNZ078>079-086>088-094>096-252300-
   Southeast Minnesota

CITY           SKY/WX    TMP DP  RH WIND       PRES   REMARKS
ROCHESTER      LGT RAIN  67  53  61 S9        29.66S
RED WING       MOSUNNY   70  46  43 SE7       29.64S
STANTON        MOSUNNY   70  50  49 SE10      29.62F
DODGE CENTER   PTSUNNY   70  48  46 SE16G23   29.65F
WINONA         MOSUNNY   73  54  49 SE6       29.66S
AUSTIN         SUNNY     70  52  52 S9G17     29.64S
PRESTON        MOSUNNY   66  50  55 S7        29.68R
$$
ABBREVIATIONS USED IN REMARKS
   TC - TEMPERATURES IN CELSIUS
  WCI - WIND CHILL INDEX
   HX - HEAT INDEX
  VSB - VISIBILITY
$$




USA.gov is the U.S. government's official web portal to all federal, state and local government web resources and services.